Flag for U.S.A. Weather past 2 weeks in Tampa, Florida, U.S.A.

Now
79 °F

Mostly cloudy.


Feels Like: 83 °F
Forecast: 76 / 85 °F
Wind: 6 mph from Southeast

Location: Tampa, Peter O Knight Airport

Current Time: Aug 31, 2015 at 3:14:40 AM

Latest Report: Aug 31, 2015 at 2:55 AM


Visibility: 10 mi

Pressure: 30.00 "Hg

Humidity: 94%

Dew point: 77 °F

Location of TampaLocation

Historic Weather in Tampa — Graph

°F

Tampa temperature yesterday

Maximum temperature yesterday: 91 °F (at 2:35 PM)
Minimum temperature yesterday: 75 °F (at 2:55 AM)
Average temperature yesterday: 81 °F

Past Weeks' High & Low Weather Summary

 TemperatureHumidityPressure
High97 °F (Aug 22, 2:55 PM)100% (Aug 18, 5:55 AM)30.13 "Hg (Aug 18, 5:55 AM)
Low75 °F (Aug 16, 1:15 AM)47% (Aug 17, 4:55 PM)29.87 "Hg (Aug 24, 7:55 PM)
Average84 °F80%30.00 "Hg
* Reported Aug 16 1:15 AM — Aug 31 1:55 AM, Tampa, Weather by CustomWeather, © 2015

Note: Actual official high and low records may vary slightly from our data, if they occured in-between our weather recording intervals... More about our weather records

Advertising

Tampa weather history for previous 24 hours

 ConditionsComfort  
Time TempWeatherWind HumidityBarometerVisibility
1:55 AM
Mon, Aug 31
79 °FPassing clouds.6 mph94%30.00 "Hg10 mi
1:35 AM79 °FClear.No wind94%30.01 "Hg10 mi
1:15 AM79 °FClear.5 mph94%30.01 "Hg10 mi
12:55 AM79 °FPassing clouds.6 mph94%30.02 "Hg10 mi
12:35 AM79 °FMostly cloudy.6 mph94%30.02 "Hg10 mi
12:15 AM79 °FMostly cloudy.6 mph94%30.01 "Hg10 mi
11:55 PM
Sun, Aug 30
79 °FPassing clouds.5 mph94%30.01 "Hg10 mi
11:35 PM79 °FPassing clouds.5 mph94%30.01 "Hg10 mi
11:15 PM79 °FClear.5 mph94%30.01 "Hg10 mi
10:55 PM79 °FPassing clouds.5 mph94%30.01 "Hg10 mi
10:35 PM79 °FPartly cloudy.3 mph94%30.01 "Hg10 mi
10:15 PM79 °FDrizzle. Overcast.5 mph94%30.02 "Hg10 mi
9:55 PM79 °FRain. Mostly cloudy.3 mph94%30.02 "Hg10 mi
9:35 PM79 °FLight rain. Overcast.No wind94%30.02 "Hg10 mi
9:15 PM79 °FLight rain. Overcast.5 mph94%30.01 "Hg10 mi
8:55 PM79 °FLight rain. Overcast.7 mph94%29.99 "Hg4 mi
8:35 PM79 °FWarm.6 mph89%29.98 "HgN/A
8:15 PM79 °FCloudy.9 mph94%29.98 "Hg10 mi
7:55 PM81 °FLight rain. More clouds than sun.8 mph89%29.98 "Hg10 mi
7:35 PM82 °FBroken clouds.8 mph84%29.96 "Hg10 mi
7:15 PM81 °FScattered clouds.5 mph89%29.96 "Hg10 mi
6:55 PM81 °FLight rain. Broken clouds.6 mph89%29.96 "Hg10 mi
6:35 PM82 °FLight rain. Broken clouds.10 mph89%29.96 "Hg7 mi
6:15 PM90 °FBroken clouds.6 mph67%29.96 "Hg10 mi
5:35 PM90 °FPartly sunny.3 mph67%29.95 "Hg10 mi
5:15 PM91 °FPartly sunny.No wind67%29.95 "Hg10 mi
4:55 PM90 °FScattered clouds.No wind67%29.95 "Hg10 mi
4:35 PM90 °FScattered clouds.3 mph67%29.96 "Hg10 mi
4:15 PM90 °FSunny.No wind67%29.96 "HgN/A
3:35 PM90 °FPartly sunny.3 mph67%29.96 "Hg10 mi
3:15 PM90 °FOvercast.5 mph67%29.97 "Hg10 mi
2:55 PM90 °FPartly sunny.5 mph67%29.98 "Hg10 mi
2:35 PM91 °FPartly sunny.7 mph67%29.99 "Hg10 mi
2:15 PM90 °FOvercast.6 mph67%30.00 "Hg10 mi
1:55 PM88 °FOvercast.7 mph70%30.00 "Hg10 mi
1:35 PM88 °FOvercast.7 mph75%30.01 "Hg10 mi
1:15 PM88 °FOvercast.6 mph70%30.02 "HgN/A
12:55 PM88 °FOvercast.7 mph75%30.03 "Hg10 mi
12:35 PM88 °FBroken clouds.6 mph75%30.03 "Hg10 mi
12:15 PM88 °FScattered clouds.7 mph75%30.03 "Hg10 mi
11:55 AM88 °FOvercast.5 mph70%30.02 "Hg10 mi
11:15 AM86 °FPartly sunny.5 mph79%30.03 "Hg10 mi
10:55 AM84 °FScattered clouds.7 mph84%30.03 "Hg10 mi
10:35 AM82 °FSunny.7 mph89%30.03 "Hg10 mi
10:15 AM82 °FSunny.5 mph84%30.02 "Hg10 mi
9:55 AM82 °FSunny.7 mph84%30.02 "Hg10 mi
9:35 AM81 °FScattered clouds.6 mph89%30.01 "Hg10 mi
9:15 AM81 °FSunny.5 mph89%30.00 "Hg10 mi
8:55 AM79 °FSunny.6 mph89%30.01 "Hg10 mi
8:35 AM77 °FSunny.5 mph94%30.01 "Hg10 mi
8:15 AM77 °FSunny.7 mph89%29.99 "Hg10 mi
7:55 AM77 °FClear.8 mph89%29.98 "Hg10 mi
7:15 AM77 °FClear.7 mph89%29.98 "Hg10 mi
6:55 AM77 °FClear.7 mph89%29.98 "Hg10 mi
6:35 AM77 °FClear.9 mph89%29.98 "Hg10 mi
6:15 AM77 °FClear.9 mph89%29.98 "Hg10 mi
5:55 AM77 °FClear.9 mph89%29.98 "Hg10 mi
5:35 AM75 °FClear.8 mph94%29.98 "Hg10 mi
5:15 AM75 °FClear.6 mph94%29.98 "Hg10 mi
4:55 AM75 °FClear.8 mph94%29.98 "Hg10 mi
4:35 AM77 °FClear.7 mph89%29.97 "Hg10 mi
4:15 AM75 °FClear.6 mph89%29.97 "Hg10 mi
3:55 AM77 °FClear.No wind89%29.98 "Hg10 mi
3:35 AM77 °FClear.6 mph89%29.97 "Hg10 mi
3:15 AM75 °FClear.7 mph94%29.98 "Hg10 mi
Weather by CustomWeather, © 2015

See weather overviewHow to use our weather pages